Simultaneous Nadir Overpasses (SNOs) Predictions

Prediction of SNOs between AQUA and GOES-15 Satellite Orbit:

Table of predicted SNOs for the next 14.0 days since TLE Epoch: 6/27/2014
Index Date Time (AQUA) AQUA Lat,Lon GOES-15 Lat,Lon Distance(km) Time Diff (sec)
1 06/28/2014 22:23:15 0.85,-131.98 0.09,-135.45 394.27 80
2 06/29/2014 10:44:31 0.23,-137.14 -0.10,-135.44 192.63 80
3 07/01/2014 10:32:20 -0.35,-134.18 -0.10,-135.43 141.36 80
4 07/01/2014 22:53:45 -0.73,-139.38 0.11,-135.42 450.36 80
5 07/03/2014 10:20:10 -1.00,-131.24 -0.10,-135.41 474.91 80
6 07/03/2014 22:41:35 -0.08,-136.44 0.11,-135.40 116.94 80
7 07/05/2014 22:29:24 0.52,-133.48 0.11,-135.38 215.91 80
8 07/06/2014 10:50:40 0.55,-138.64 -0.13,-135.37 371.33 80
9 07/08/2014 10:38:29 -0.05,-135.69 -0.13,-135.34 39.55 80
10 07/10/2014 10:26:18 -0.67,-132.73 -0.13,-135.29 291.33 80
11 07/10/2014 22:47:42 -0.40,-137.93 0.15,-135.28 301.30 80




NCC Satellite Simultaneous Nadir Overpasses (SNOs) Prediction Service
